Home > Weather > Camrose > Past weeks

Flag for Canada Past Weather in Camrose, Alberta, Canada — Yesterday and Last 2 Weeks

Now
68 °F

Scattered clouds.


Feels Like: 68 °F
Forecast: 46 / 68 °F
Wind: 9 mph from Northwest

Location: Edmonton International

Current Time: Aug 24, 2016 at 2:06:49 PM

Latest Report: Aug 24, 2016 at 1:00 PM


Visibility: 15 mi

Pressure: 30.32 "Hg (27.80 "Hg at 744m altitude)

Humidity: 56%

Dew Point: 52 °F

Location of CamroseLocation

Past Weather in Camrose — Graph

°F

Camrose Temperature Yesterday

Maximum temperature yesterday: 57 °F (at 6:00 PM)
Minimum temperature yesterday: 46 °F (at 11:00 PM)
Average temperature yesterday: 54 °F

High & Low Weather Summary for the Past Weeks

 TemperatureHumidityPressure
High81 °F (Aug 13, 4:00 PM)100% (Aug 10, 4:00 AM)30.35 "Hg (Aug 10, 4:00 AM)
Low36 °F (Aug 19, 5:00 AM)29% (Aug 17, 5:00 PM)29.43 "Hg (Aug 22, 1:00 PM)
Average60 °F75%29.98 "Hg
* Reported Aug 9 1:00 PM — Aug 24 1:00 PM, Camrose, Weather by CustomWeather, © 2016

Note: Actual official high and low records may vary slightly from our data, if they occured in-between our weather recording intervals... More about our weather records

Advertising

Camrose Weather History for the Previous 24 Hours

Scroll right to see more
 ConditionsComfort  
Time TempWeatherWind HumidityBarometerVisibility
1:00 PM
Wed, Aug 24
68 °FScattered clouds.9 mph56%30.32 "Hg15 mi
12:00 PM66 °FPassing clouds.8 mph64%30.34 "Hg15 mi
11:00 AM61 °FPassing clouds.9 mph77%30.35 "Hg15 mi
10:00 AM57 °FBroken clouds.6 mph82%30.35 "Hg15 mi
9:00 AM54 °FPassing clouds.5 mph94%30.34 "Hg15 mi
8:00 AM48 °FScattered clouds.5 mph94%30.34 "Hg15 mi
7:00 AM46 °FPassing clouds.7 mph93%30.33 "Hg15 mi
6:00 AM46 °FPassing clouds.7 mph93%30.32 "Hg15 mi
5:00 AM46 °FPassing clouds.8 mph100%30.32 "Hg15 mi
4:00 AM46 °FPassing clouds.6 mph93%30.31 "Hg15 mi
3:00 AM45 °FPassing clouds.3 mph93%30.31 "Hg15 mi
2:00 AM45 °FPassing clouds.5 mph93%30.30 "Hg15 mi
1:00 AM45 °FPartly cloudy.No wind93%30.31 "Hg15 mi
12:00 AM43 °FPassing clouds.3 mph93%30.30 "Hg15 mi
11:00 PM
Tue, Aug 23
46 °FPassing clouds.3 mph93%30.29 "Hg15 mi
10:00 PM48 °FPassing clouds.7 mph94%30.27 "Hg15 mi
9:00 PM52 °FScattered clouds.6 mph88%30.25 "Hg15 mi
8:00 PM55 °FPartly sunny.7 mph88%30.23 "Hg15 mi
7:00 PM57 °FPartly sunny.12 mph88%30.20 "Hg15 mi
6:00 PM57 °FBroken clouds.9 mph88%30.18 "Hg15 mi
5:00 PM55 °FLight rain. Cloudy.12 mph94%30.17 "Hg15 mi
4:00 PM55 °FLight rain. Mostly cloudy.16 mph94%30.15 "Hg12 mi
3:48 PM55 °FLight rain. Mostly cloudy.15 mph94%30.15 "Hg12 mi
3:00 PM55 °FLight rain. Mostly cloudy.15 mph94%30.13 "Hg15 mi
2:00 PM55 °FLight rain. Overcast.17 mph88%30.11 "Hg15 mi
Weather by CustomWeather, © 2016

See weather overviewHow to use our weather pages